Terminal Aerodrome Forecast
Issued by NWS Wilmington, NC

Home | Current Version | Previous Version | Text Only | Print | Product List | Glossary On
Versions: 1 2 3 4 5 6 7 8 9 10 11 12 13 14 15 16
971
FTUS42 KILM 080728 AAA
TAFFLO
TAF AMD
KFLO 080728Z 0807/0906 29005KT P6SM SKC
     FM081300 24007KT P6SM SCT250
     FM081800 23012G19KT P6SM SCT060 BKN150
      TEMPO 0820/0824 5SM -SHRA BKN040
     FM090100 26010G15KT P6SM BKN050=

USA.gov is the U.S. government's official web portal to all federal, state and local government web resources and services.